Knox, IN

8:10 PM CDT on March 28, 2017 (GMT -0500)
Starke County

Weather History for KOXI - May, 2013

Change the Weather History Date:

Monday, May 27, 2013

  Actual Average (KSBN) Record (KSBN)
Temperature  
Mean Temperature 56 °F -  
Max Temperature 88 °F 73 °F 97 °F (2012)
Min Temperature 51 °F 52 °F 30 °F (1961)
Degree Days  
Heating Degree Days 9    
Growing Degree Days 6 (Base 50)    
Moisture  
Dew Point 56 °F    
Average Humidity 97    
Maximum Humidity 100    
Minimum Humidity 86    
Precipitation  
Precipitation 0.00 in - - ()
Sea Level Pressure  
Sea Level Pressure 30.01 in    
Wind  
Wind Speed 11 mph (ESE)    
Max Wind Speed 21 mph    
Max Gust Speed 26 mph    
Visibility 6 miles    
Events      
Averages and records for this station are not official NWS values.
T = Trace of Precipitation, MM = Missing Value Source: NWS Daily Summary

Daily Weather History Graph

Daily Weather History Graph

Search for Another Location

Airport or City:

Trip Planner

Search our weather history database for the weather conditions in past years. The results will help you decide how hot, cold, wet, or windy it might be!

Date:

Astronomy

May. 27, 2013 Rise Set
Actual Time 5:18 AM CDT 8:09 PM CDT
Civil Twilight 4:45 AM CDT 8:42 PM CDT
Nautical Twilight 4:04 AM CDT 9:24 PM CDT
Astronomical Twilight 3:16 AM CDT 10:11 PM CDT
Moon 10:47 PM CDT (5/27) 7:55 AM CDT (5/27)
Length of Visible Light 15h 57m
Length of Day
14h 51m
Waning Gibbous, 91% of the Moon is Illuminated
May 27
Waning Gibbous
May 31
Last Quarter
Jun 8
New
Jun 16
First Quarter
Jun 23
Full

Hourly Weather History & Observations

Time (CDT) Temp. Dew Point Humidity Pressure Visibility Wind Dir Wind Speed Gust Speed Precip Events Conditions
12:15 AM 58.5 °F 54.3 °F 86% 30.15 in 10.0 mi ESE 6.9 mph - N/A   Overcast
12:35 AM 58.3 °F 54.3 °F 87% 30.15 in 10.0 mi ESE 5.8 mph - N/A   Overcast
12:55 AM 58.1 °F 54.5 °F 88% 30.15 in 10.0 mi SE 5.8 mph - N/A   Overcast
1:15 AM 57.7 °F 54.5 °F 89% 30.15 in 10.0 mi ESE 6.9 mph - N/A   Overcast
1:35 AM 57.6 °F 54.1 °F 88% 30.14 in 10.0 mi SE 8.1 mph - N/A   Overcast
1:55 AM 57.6 °F 53.8 °F 87% 30.14 in 10.0 mi SE 8.1 mph - N/A   Overcast
2:15 AM 57.2 °F 54.0 °F 89% 30.14 in 10.0 mi SE 9.2 mph - N/A   Overcast
2:35 AM 56.7 °F 53.8 °F 90% 30.14 in 10.0 mi SE 9.2 mph - N/A   Overcast
2:55 AM 56.3 °F 54.0 °F 92% 30.13 in 7.0 mi SE 11.5 mph - N/A   Overcast
3:15 AM 55.6 °F 54.0 °F 94% 30.13 in 7.0 mi SE 13.8 mph 19.6 mph N/A   Overcast
3:35 AM 54.9 °F 53.8 °F 96% 30.13 in 7.0 mi SE 15.0 mph - N/A   Overcast
3:55 AM 54.7 °F 53.6 °F 96% 30.12 in 5.0 mi SE 16.1 mph - N/A   Overcast
4:15 AM 54.5 °F 53.6 °F 97% 30.12 in 7.0 mi SE 12.7 mph - N/A   Overcast
4:35 AM 54.3 °F 53.6 °F 97% 30.11 in 5.0 mi SE 15.0 mph - N/A   Overcast
4:55 AM 54.1 °F 53.6 °F 98% 30.11 in 5.0 mi SE 15.0 mph 20.7 mph N/A   Overcast
5:15 AM 54.1 °F 53.6 °F 98% 30.11 in 5.0 mi SE 17.3 mph - N/A   Overcast
5:35 AM 54.0 °F 53.2 °F 97% 30.11 in 5.0 mi SE 16.1 mph 21.9 mph N/A   Overcast
5:55 AM 53.2 °F 52.9 °F 99% 30.10 in 4.0 mi ESE 16.1 mph 20.7 mph N/A   Overcast
6:15 AM 52.7 °F 52.3 °F 99% 30.10 in 4.0 mi SE 19.6 mph - N/A   Overcast
6:35 AM 52.2 °F 52.0 °F 99% 30.10 in 4.0 mi SE 17.3 mph 23.0 mph N/A   Overcast
6:55 AM 52.0 °F 51.8 °F 99% 30.10 in 4.0 mi ESE 13.8 mph 21.9 mph N/A   Overcast
7:15 AM 51.8 °F 51.4 °F 99% 30.10 in 4.0 mi ESE 17.3 mph 23.0 mph N/A   Overcast
7:35 AM 51.8 °F 51.6 °F 99% 30.09 in 7.0 mi ESE 16.1 mph 24.2 mph N/A   Overcast
7:55 AM 51.8 °F 51.6 °F 99% 30.09 in 10.0 mi ESE 16.1 mph 23.0 mph N/A   Overcast
8:15 AM 51.8 °F 51.6 °F 99% 30.08 in 10.0 mi ESE 15.0 mph 20.7 mph N/A   Overcast
8:35 AM 52.2 °F 52.0 °F 99% 30.08 in 10.0 mi ESE 17.3 mph 21.9 mph N/A   Overcast
8:55 AM 52.7 °F 52.3 °F 99% 30.08 in 10.0 mi ESE 15.0 mph 20.7 mph N/A   Overcast
9:15 AM 52.9 °F 52.3 °F 98% 30.08 in 5.0 mi SE 12.7 mph - N/A   Overcast
9:35 AM 53.1 °F 52.5 °F 98% 30.06 in 5.0 mi ESE 15.0 mph - N/A   Overcast
9:55 AM 53.8 °F 53.2 °F 98% 30.05 in 7.0 mi ESE 15.0 mph - N/A   Overcast
10:15 AM 54.5 °F 54.0 °F 98% 30.05 in 10.0 mi ESE 12.7 mph - N/A   Overcast
10:35 AM 55.2 °F 54.1 °F 96% 30.06 in 10.0 mi SE 13.8 mph - N/A   Overcast
10:55 AM 55.4 °F 54.5 °F 97% 30.06 in 4.0 mi SE 10.4 mph - N/A   Overcast
11:15 AM 55.6 °F 54.9 °F 97% 30.04 in 5.0 mi SE 12.7 mph - N/A   Overcast
11:35 AM 55.8 °F 55.2 °F 98% 30.03 in 2.0 mi ESE 12.7 mph 19.6 mph N/A   Overcast
11:55 AM 56.1 °F 55.8 °F 99% 30.02 in 7.0 mi SE 17.3 mph 23.0 mph N/A   Overcast
12:15 PM 57.7 °F 57.0 °F 97% 30.01 in 10.0 mi SE 18.4 mph 26.5 mph N/A   Mostly Cloudy
12:35 PM 58.6 °F 57.6 °F 96% 30.01 in 10.0 mi SE 15.0 mph - N/A   Mostly Cloudy
12:55 PM 59.5 °F 57.9 °F 94% 29.99 in 10.0 mi SE 20.7 mph 26.5 mph N/A   Overcast
1:15 PM 59.9 °F 57.7 °F 93% 29.98 in 10.0 mi SE 16.1 mph - N/A   Mostly Cloudy
1:35 PM 60.6 °F 57.9 °F 91% 29.98 in 10.0 mi SE 19.6 mph 24.2 mph N/A   Overcast
1:55 PM 60.6 °F 57.7 °F 90% 29.98 in 10.0 mi SE 13.8 mph 23.0 mph N/A   Overcast
2:15 PM 60.3 °F 57.7 °F 91% 29.98 in 10.0 mi SE 10.4 mph - N/A   Overcast
2:35 PM 60.3 °F 58.1 °F 93% 29.98 in 1.5 mi SE 10.4 mph - N/A   Overcast
2:55 PM 59.5 °F 58.5 °F 96% 29.98 in 2.0 mi ESE 6.9 mph - N/A   Overcast
3:15 PM 59.0 °F 58.5 °F 98% 29.98 in 2.0 mi ENE 3.5 mph - N/A   Overcast
3:35 PM 58.6 °F 58.3 °F 99% 29.96 in 1.5 mi NE 6.9 mph - N/A   Overcast
3:55 PM 58.3 °F 58.1 °F 99% 29.96 in 1.8 mi NE 6.9 mph - N/A   Overcast
4:15 PM 58.1 °F 58.1 °F 100% 29.95 in 4.0 mi NE 9.2 mph - N/A   Overcast
4:35 PM 58.5 °F 58.3 °F 99% 29.93 in 5.0 mi ENE 10.4 mph - N/A   Overcast
4:55 PM 59.0 °F 58.8 °F 99% 29.93 in 7.0 mi East 9.2 mph - N/A   Overcast
5:15 PM 59.0 °F 59.0 °F 100% 29.92 in 7.0 mi East 8.1 mph - N/A   Overcast
5:35 PM 59.5 °F 59.4 °F 99% 29.91 in 10.0 mi East 8.1 mph - N/A   Overcast
5:55 PM 59.7 °F 59.4 °F 99% 29.90 in 7.0 mi East 9.2 mph - N/A   Overcast
6:15 PM 59.9 °F 59.4 °F 98% 29.90 in 7.0 mi East 6.9 mph - N/A   Overcast
6:35 PM 60.3 °F 59.9 °F 99% 29.90 in 7.0 mi East 9.2 mph - N/A   Overcast
6:55 PM 60.3 °F 59.9 °F 99% 29.89 in 7.0 mi East 8.1 mph - N/A   Overcast
7:15 PM 60.4 °F 59.9 °F 98% 29.89 in 7.0 mi ESE 8.1 mph - N/A   Overcast
7:35 PM 60.6 °F 60.1 °F 98% 29.88 in 5.0 mi East 6.9 mph - N/A   Overcast
7:55 PM 60.6 °F 60.1 °F 98% 29.89 in 4.0 mi East 8.1 mph - N/A   Overcast
8:15 PM 60.8 °F 60.6 °F 99% 29.89 in 2.5 mi ESE 5.8 mph - N/A   Overcast
8:35 PM 61.0 °F 60.8 °F 99% 29.89 in 3.0 mi East 3.5 mph - N/A   Overcast
8:55 PM 61.2 °F 61.0 °F 99% 29.88 in 5.0 mi ESE 8.1 mph - N/A   Mostly Cloudy
9:15 PM 61.3 °F 61.2 °F 99% 29.88 in 5.0 mi ESE 11.5 mph - N/A   Scattered Clouds
9:35 PM 60.8 °F 60.6 °F 99% 29.89 in 5.0 mi ESE 8.1 mph - N/A   Scattered Clouds
9:55 PM 60.4 °F 60.3 °F 99% 29.89 in 4.0 mi ESE 8.1 mph - N/A   Mostly Cloudy
10:15 PM 60.3 °F 60.1 °F 99% 29.89 in 4.0 mi East 9.2 mph - N/A   Overcast
10:35 PM 59.9 °F 59.9 °F 100% 29.89 in 4.0 mi ESE 6.9 mph - N/A   Overcast
10:55 PM 60.1 °F 59.9 °F 99% 29.90 in 3.0 mi ESE 6.9 mph - N/A   Overcast
11:15 PM 60.1 °F 59.9 °F 99% 29.90 in 3.0 mi ESE 5.8 mph - N/A   Overcast
11:35 PM 60.3 °F 60.1 °F 99% 29.89 in 1.8 mi SE 6.9 mph - N/A   Overcast
11:55 PM 60.8 °F 60.4 °F 99% 29.89 in 2.0 mi SE 6.9 mph - N/A   Overcast